This is the latest recevied weather packets stored in our database for station/object KI5NXU. If no packets are shown the sender has not sent any weather packets the latest 1 day(s).
| Time | Temp. | Humidity | Pressure | Rain* | Wind** | Luminosity | Snow |
|---|---|---|---|---|---|---|---|
| 1836274622 | 27.22° C | 67% | 1015.6 hPa | 0 mm | 2.68 m/s, 147° | 0 W/m² | - |
| 1836274475 | 27.22° C | 68% | 1015.8 hPa | 0 mm | 1.79 m/s, 161° | 0 W/m² | - |
| 1836274320 | 27.22° C | 67% | 1015.7 hPa | 0 mm | 1.79 m/s, 162° | 0 W/m² | - |
| 1836274173 | 27.22° C | 68% | 1015.9 hPa | 0 mm | 1.79 m/s, 158° | 0 W/m² | - |
| 1836274019 | 27.22° C | 67% | 1015.6 hPa | 0 mm | 1.79 m/s, 160° | 0 W/m² | - |
| 1778054006 | 12.78° C | 84% | 1010.2 hPa | 0 mm | 0.45 m/s, 66° | 0 W/m² | - |
| 1778053703 | 12.78° C | 84% | 1010.4 hPa | 0 mm | 0.45 m/s, 100° | 0 W/m² | - |
| 1778053400 | 12.78° C | 84% | 1010.2 hPa | 0 mm | 0.89 m/s, 89° | 0 W/m² | - |
| 1778053098 | 12.78° C | 83% | 1010.4 hPa | 0 mm | 0.45 m/s, 41° | 0 W/m² | - |
| 1778052795 | 12.78° C | 84% | 1010.5 hPa | 0 mm | 1.79 m/s, 339° | 0 W/m² | - |
| 1778052492 | 12.78° C | 85% | 1010.4 hPa | 0 mm | 1.34 m/s, 324° | 0 W/m² | - |
| 1778052189 | 12.78° C | 84% | 1010.3 hPa | 0 mm | 2.68 m/s, 330° | 0 W/m² | - |
| 1778051887 | 12.78° C | 85% | 1010.6 hPa | 0 mm | 1.34 m/s, 356° | 0 W/m² | - |
| 1778051585 | 12.78° C | 84% | 1010.3 hPa | 0 mm | 2.24 m/s, 341° | 0 W/m² | - |
| 1778051281 | 12.78° C | 84% | 1010.7 hPa | 0 mm | 1.34 m/s, 332° | 0 W/m² | - |
| 1778050979 | 12.78° C | 84% | 1010.6 hPa | 0 mm | 0.45 m/s, 336° | 0 W/m² | - |
| 1778050676 | 12.78° C | 85% | 1010.7 hPa | 0 mm | 1.34 m/s, 300° | 0 W/m² | - |
| 1778050373 | 12.78° C | 84% | 1010.9 hPa | 0 mm | 1.79 m/s, 313° | 0 W/m² | - |
| 1778050070 | 13.33° C | 84% | 1010.5 hPa | 0 mm | 2.24 m/s, 6° | 0 W/m² | - |
| 1778049765 | 13.33° C | 84% | 1010.6 hPa | 0 mm | 1.34 m/s, 338° | 0 W/m² | - |
| 1778049463 | 12.78° C | 85% | 1010.5 hPa | 0 mm | 0.45 m/s, 356° | 0 W/m² | - |
| 1778049160 | 13.33° C | 85% | 1010.4 hPa | 0 mm | 1.79 m/s, 353° | 0 W/m² | - |
| 1778048859 | 13.33° C | 85% | 1010.4 hPa | 0 mm | 1.34 m/s, 26° | 0 W/m² | - |
| 1778048556 | 13.33° C | 85% | 1010.5 hPa | 0 mm | 1.34 m/s, 0° | 0 W/m² | - |
| 1778048252 | 12.78° C | 85% | 1010.3 hPa | 0 mm | 0.89 m/s, 44° | 0 W/m² | - |
* Rain latest hour (hover to see other rain measurements)
** Current wind speed in m/s (hover to see current wind gust speed)